Skip Page Navigation
NASA JPL Caltech
NASA Logo - Jet Propulsion Laboratory + View the NASA Portal
+ Near-Earth Object (NEO) Program
Search JPL
JPL Home Earth Solar System Stars & Galaxies Technology
JPL Solar System Dynamics
BODIES ORBITS EPHEMERIDES TOOLS PHYSICAL DATA DISCOVERY FAQ SITE MAP
JPL Small-Body Database Browser
Search: [ help ]  
23690 (1997 JD14)
Classification: Main-belt Asteroid          SPK-ID: 2023690
Ephemeris | Orbit Diagram | Orbital Elements | Physical Parameters | Discovery Circumstances | Close-Approach Data ]

[ show orbit diagram ]
Orbital Elements at Epoch 2457000.5 (2014-Dec-09.0) TDB
Reference: JPL 11 (heliocentric ecliptic J2000)
 Element Value Uncertainty (1-sigma)   Units 
e .01528132302798245 9.855e-08  
a 2.545731656089762 2.1233e-08 AU
q 2.506829508310493 2.5535e-07 AU
i 14.06398913040818 7.4779e-06 deg
node 208.6025772767414 2.6587e-05 deg
peri 160.3267150662477 0.00020131 deg
M 345.6162108587181 0.00019997 deg
tp 2457059.777266513176
(2015-Feb-06.27726651)
0.00082412 JED
period 1483.601833643234
4.06
1.8561e-05
5.082e-08
d
yr
n .2426527062965131 3.0358e-09 deg/d
Q 2.584633803869031 2.1557e-08 AU
  Orbit Determination Parameters
   # obs. used (total)      782  
   data-arc span      6354 days (17.40 yr)  
   first obs. used      1997-05-09  
   last obs. used      2014-10-01  
   planetary ephem.      DE431  
   SB-pert. ephem.      SB431-BIG16  
   condition code      0  
   fit RMS      .50763  
   data source      ORB  
   producer      Otto Matic  
   solution date      2014-Oct-09 14:48:43  

Additional Information
 Earth MOID = 1.51116 AU 
 T_jup = 3.401 
[ show covariance matrix ]

Ephemeris | Orbit Diagram | Orbital Elements | Physical Parameters | Discovery Circumstances | Close-Approach Data ]

Physical Parameter Table
Parameter Symbol Value Units Sigma Reference Notes
absolute magnitude H 13.7 mag n/a MPO267795  

23690 (1997 JD14)          Discovered 1997-May-09 by Beijing Schmidt CCD Asteroid Program at Xinglong (327)
Reference: 20010408/Numbers.arcLast Updated: 2004-04-19

[ show close-approach data ]
Alternate Designations
 1997 JD14 = 1998 QG77 
Ephemeris | Orbit Diagram | Orbital Elements | Physical Parameters | Discovery Circumstances | Close-Approach Data ]
ABOUT SSD CREDITS/AWARDS PRIVACY/COPYRIGHT GLOSSARY LINKS
FirstGov 2014-Oct-25 19:46 UT
(server date/time)  
NASA Home Page
Site Manager:   Donald K. Yeomans
Webmaster  Alan B. Chamberlin